DW2047 Weather Reports


time (UTC)temp
C
wind
direction
speed
KPH
gust
KPH
rain 1hr
cm
rain 24hr
cm
rain mn
cm
humidity
%
barometer
mb
20260510110503 19 200 0.0 0.0 0.00 0.00 0.00 90 1011.1
20260510110050 19 200 0.0 0.0 0.00 0.00 0.00 90 1011.1
20260510105513 19 200 0.0 0.0 0.00 0.00 0.00 90 1011.0
20260510105050 19 200 0.0 0.0 0.00 0.00 0.00 90 1011.0
20260510104553 19 200 0.0 0.0 0.00 0.00 0.00 89 1011.0
20260510104028 20 200 0.0 0.0 0.00 0.00 0.00 89 1011.0
20260510103608 20 200 0.0 0.0 0.00 0.00 0.00 89 1010.9
20260510103002 20 200 0.0 0.0 0.00 0.00 0.00 89 1010.9
20260510102537 20 200 0.0 0.0 0.00 0.00 0.00 89 1010.9
20260510102010 20 200 0.0 0.0 0.00 0.00 0.00 88 1010.8
20260510101600 20 200 0.0 0.0 0.00 0.00 0.00 88 1010.8
20260510101033 20 200 1.6 0.0 0.00 0.00 0.00 88 1010.6
20260510100513 20 200 1.6 0.0 0.00 0.00 0.00 88 1010.6
20260510100014 20 200 0.0 0.0 0.00 0.00 0.00 88 1010.6
20260510095554 21 200 0.0 0.0 0.00 0.00 0.00 87 1010.6
20260510095022 21 200 1.6 0.0 0.00 0.00 0.00 87 1010.5
20260510094526 21 200 3.2 0.0 0.00 0.00 0.00 87 1010.4
20260510094105 21 201 3.2 0.0 0.00 0.00 0.00 87 1010.3
20260510093538 21 161 3.2 0.0 0.00 0.00 0.00 87 1010.1
20260510093059 21 161 3.2 0.0 0.00 0.00 0.00 87 1010.1
20260510092518 21 161 4.8 0.0 0.00 0.00 0.00 86 1010.1
20260510092054 21 139 4.8 0.0 0.00 0.00 0.00 86 1010.1
20260510091556 21 138 3.2 0.0 0.00 0.00 0.00 86 1010.1
20260510091033 21 148 3.2 0.0 0.00 0.00 0.00 86 1010.1
20260510090505 21 148 4.8 0.0 0.00 0.00 0.00 85 1010.2
20260510090006 21 148 4.8 0.0 0.00 0.00 0.00 85 1010.2
20260510085544 21 142 3.2 0.0 0.00 0.00 0.00 85 1010.2
20260510085022 21 144 3.2 0.0 0.00 0.00 0.00 85 1010.2
20260510084529 21 142 3.2 0.0 0.00 0.00 0.00 85 1010.1
20260510084107 21 170 4.8 0.0 0.00 0.00 0.00 85 1010.1
20260510083539 21 178 4.8 0.0 0.00 0.00 0.00 84 1010.3
20260510083038 21 144 3.2 0.0 0.00 0.00 0.00 84 1010.2
20260510082513 22 147 4.8 0.0 0.00 0.00 0.00 84 1010.3
20260510082047 22 147 4.8 0.0 0.00 0.00 0.00 84 1010.4
20260510081535 22 146 4.8 0.0 0.00 0.00 0.00 83 1010.6
20260510081008 22 146 4.8 0.0 0.00 0.00 0.00 83 1010.6
20260510080542 22 151 4.8 0.0 0.00 0.00 0.00 83 1010.6
20260510080044 22 155 4.8 0.0 0.00 0.00 0.00 82 1010.7
20260510075504 22 147 3.2 0.0 0.00 0.00 0.00 82 1010.6
20260510075041 22 147 4.8 0.0 0.00 0.00 0.00 82 1010.6
20260510074544 22 150 3.2 0.0 0.00 0.00 0.00 81 1010.6
20260510074022 22 155 3.2 0.0 0.00 0.00 0.00 81 1010.7
20260510073558 22 155 3.2 0.0 0.00 0.00 0.00 81 1010.7
20260510073102 22 155 3.2 0.0 0.00 0.00 0.00 81 1010.8
20260510072538 22 156 4.8 0.0 0.00 0.00 0.00 81 1010.8
20260510072011 22 140 4.8 0.0 0.00 0.00 0.00 81 1010.8
20260510071521 22 160 4.8 0.0 0.00 0.00 0.00 81 1010.8
20260510071058 22 153 4.8 0.0 0.00 0.00 0.00 81 1010.9
20260510070533 22 150 4.8 0.0 0.00 0.00 0.00 80 1010.7
20260510070042 22 146 4.8 0.0 0.00 0.00 0.00 80 1010.7
20260510065522 22 144 1.6 0.0 0.00 0.00 0.00 79 1010.7
20260510065058 22 144 1.6 0.0 0.00 0.00 0.00 79 1010.6
20260510064608 23 144 3.2 0.0 0.00 0.00 0.00 79 1010.6
20260510064030 23 144 4.8 0.0 0.00 0.00 0.00 79 1010.5
20260510063505 23 133 3.2 0.0 0.00 0.00 0.00 78 1010.6
20260510063012 23 133 3.2 0.0 0.00 0.00 0.00 78 1010.6
20260510062551 23 133 3.2 0.0 0.00 0.00 0.00 78 1010.6
20260510062020 23 133 4.8 0.0 0.00 0.00 0.00 78 1010.6
20260510061524 22 132 3.2 0.0 0.00 0.00 0.00 79 1010.6
20260510061103 22 132 3.2 0.0 0.00 0.00 0.00 80 1010.6
20260510060539 22 132 1.6 0.0 0.00 0.00 0.00 80 1010.6
20260510060043 23 132 1.6 0.0 0.00 0.00 0.00 81 1010.6
20260510055518 23 132 3.2 0.0 0.00 0.00 0.00 82 1010.5
20260510055054 22 132 3.2 0.0 0.00 0.00 0.00 82 1010.5
20260510054556 22 132 3.2 0.0 0.00 0.00 0.00 84 1010.5
20260510054032 22 132 3.2 0.0 0.00 0.00 0.00 86 1010.5
20260510053502 22 132 1.6 0.0 0.00 0.00 0.00 87 1010.5
20260510053007 22 132 1.6 0.0 0.00 0.00 0.00 88 1010.5
20260510052547 22 132 1.6 0.0 0.00 0.00 0.00 89 1010.5
20260510052021 22 132 1.6 0.0 0.00 0.00 0.00 89 1010.4
20260510051524 22 132 1.6 0.0 0.00 0.00 0.00 89 1010.5
20260510051100 22 132 0.0 0.0 0.00 0.00 0.00 90 1010.5
20260510050533 22 132 0.0 0.0 0.00 0.00 0.00 89 1010.5
20260510050038 22 132 0.0 0.0 0.00 0.00 0.00 89 1010.5
20260510045510 22 132 0.0 0.0 0.00 0.00 0.00 89 1010.4
20260510045049 22 132 0.0 0.0 0.00 0.00 0.00 89 1010.4
20260510044628 22 132 0.0 0.0 0.00 0.00 0.00 88 1010.4
20260510044027 22 132 0.0 0.0 0.00 0.00 0.00 88 1010.4
20260510043603 22 132 0.0 0.0 0.00 0.00 0.00 88 1010.5
20260510043002 22 132 0.0 0.0 0.00 0.00 0.00 87 1010.6
20260510042541 22 132 0.0 0.0 0.00 0.00 0.00 87 1010.6
20260510042019 22 132 0.0 0.0 0.00 0.00 0.00 87 1010.6
20260510041522 22 132 0.0 0.0 0.00 0.00 0.00 86 1010.6
20260510041100 22 132 0.0 0.0 0.00 0.00 0.00 86 1010.6
20260510040530 22 132 0.0 0.0 0.00 0.00 0.00 85 1010.6
20260510040035 23 132 0.0 0.0 0.00 0.00 0.00 85 1010.5
20260510035505 23 132 0.0 0.0 0.00 0.00 0.00 84 1010.5
20260510035044 23 132 0.0 0.0 0.00 0.00 0.00 84 1010.4
20260510034545 23 132 0.0 0.0 0.00 0.00 0.00 83 1010.3
20260510034022 23 132 0.0 0.0 0.00 0.00 0.00 83 1010.3
20260510033557 23 132 0.0 0.0 0.00 0.00 0.00 83 1010.3
20260510033103 23 132 0.0 0.0 0.00 0.00 0.00 83 1010.3
20260510032536 23 132 0.0 0.0 0.00 0.00 0.00 82 1010.2
20260510032012 24 132 0.0 0.0 0.00 0.00 0.00 82 1010.1
20260510031601 24 132 0.0 0.0 0.00 0.00 0.00 82 1010.2
20260510031033 24 132 1.6 0.0 0.00 0.00 0.00 82 1010.1
20260510030509 24 132 1.6 0.0 0.00 0.00 0.00 82 1010.0
20260510030011 23 132 1.6 0.0 0.00 0.00 0.00 82 1010.0
20260510025549 24 132 0.0 0.0 0.00 0.00 0.00 82 1009.9
20260510025019 24 132 0.0 0.0 0.00 0.00 0.00 81 1009.8
20260510024525 24 132 0.0 0.0 0.00 0.00 0.00 80 1009.7
20260510024101 25 132 0.0 0.0 0.00 0.00 0.00 80 1009.6
20260510023531 25 132 0.0 0.0 0.00 0.00 0.00 79 1009.5
20260510023035 25 132 0.0 0.0 0.00 0.00 0.00 78 1009.4
20260510022505 25 132 0.0 0.0 0.00 0.00 0.00 77 1009.3
20260510022042 25 132 0.0 0.0 0.00 0.00 0.00 76 1009.3
20260510021548 26 132 0.0 0.0 0.00 0.00 0.00 76 1009.2
20260510021020 26 132 0.0 0.0 0.00 0.00 0.00 75 1009.1
20260510020606 26 132 0.0 0.0 0.00 0.00 0.00 74 1009.0
20260510020007 26 132 0.0 0.0 0.00 0.00 0.00 74 1009.0
20260510015547 26 132 0.0 0.0 0.00 0.00 0.00 73 1008.9
20260510015020 27 132 0.0 0.0 0.00 0.00 0.00 72 1008.8
20260510014528 27 132 0.0 0.0 0.00 0.00 0.00 72 1008.7
20260510014002 27 132 1.6 0.0 0.00 0.00 0.00 70 1008.6
20260510013544 27 132 3.2 0.0 0.00 0.00 0.00 70 1008.6
20260510013043 27 132 3.2 0.0 0.00 0.00 0.00 69 1008.6
20260510012518 27 132 3.2 0.0 0.00 0.00 0.00 68 1008.5
20260510012055 27 130 3.2 0.0 0.00 0.00 0.00 68 1008.5
20260510011542 27 130 3.2 0.0 0.00 0.00 0.00 68 1008.5
20260510011017 28 130 3.2 0.0 0.00 0.00 0.00 68 1008.5
20260510010553 28 130 1.6 0.0 0.00 0.00 0.00 68 1008.5
20260510010136 28 130 1.6 0.0 0.00 0.00 0.00 67 1008.5
20260510005530 28 130 3.2 0.0 0.00 0.00 0.00 67 1008.4
20260510005005 29 130 3.2 0.0 0.00 0.00 0.00 66 1008.4
20260510004505 29 130 1.6 0.0 0.00 0.00 0.00 65 1008.3
20260510004044 30 130 1.6 0.0 0.00 0.00 0.00 64 1008.3
20260510003520 30 130 3.2 0.0 0.00 0.00 0.00 63 1008.2
20260510003024 30 130 3.2 0.0 0.00 0.00 0.00 62 1008.1
20260510002601 30 130 3.2 0.0 0.00 0.00 0.00 61 1008.1
20260510002029 31 130 3.2 0.0 0.00 0.00 0.00 61 1008.1
20260510001535 31 130 4.8 0.0 0.00 0.00 0.00 59 1008.1
20260510001008 31 130 3.2 0.0 0.00 0.00 0.00 57 1008.0
20260510000544 31 129 0.0 0.0 0.00 0.00 0.00 54 1008.0
20260510000056 31 129 1.6 0.0 0.00 0.00 0.00 54 1007.9
20260509235536 32 129 1.6 0.0 0.00 0.00 0.00 52 1007.9
20260509235008 32 129 1.6 0.0 0.00 0.00 0.00 52 1007.9
20260509234516 32 129 1.6 0.0 0.00 0.00 0.00 51 1007.8
20260509234051 32 129 1.6 0.0 0.00 0.00 0.00 52 1007.8
20260509233524 32 129 1.6 0.0 0.00 0.00 0.00 48 1007.7
20260509233031 32 129 0.0 0.0 0.00 0.00 0.00 50 1007.7
20260509232510 32 129 1.6 0.0 0.00 0.00 0.00 48 1007.7
20260509232040 32 129 1.6 0.0 0.00 0.00 0.00 47 1007.7
20260509231532 32 129 1.6 0.0 0.00 0.00 0.00 48 1007.7
20260509231004 32 129 1.6 0.0 0.00 0.00 0.00 46 1007.6
20260509230540 32 129 0.0 0.0 0.00 0.00 0.00 50 1007.7
20260509230029 32 129 1.6 0.0 0.00 0.00 0.00 49 1007.7
20260509225503 32 129 3.2 0.0 0.00 0.00 0.00 48 1007.7
20260509225045 32 129 1.6 0.0 0.00 0.00 0.00 48 1007.8
20260509224551 33 129 1.6 0.0 0.00 0.00 0.00 47 1007.7
20260509224030 33 129 1.6 0.0 0.00 0.00 0.00 50 1007.8
20260509223503 33 129 0.0 0.0 0.00 0.00 0.00 47 1007.8
20260509223006 33 129 1.6 0.0 0.00 0.00 0.00 49 1007.8
20260509222547 32 130 1.6 0.0 0.00 0.00 0.00 47 1007.7
20260509222023 32 129 1.6 0.0 0.00 0.00 0.00 50 1007.7
20260509221529 32 130 1.6 0.0 0.00 0.00 0.00 50 1007.6
20260509221106 32 125 3.2 0.0 0.00 0.00 0.00 51 1007.6
20260509220536 32 121 1.6 0.0 0.00 0.00 0.00 50 1007.7
20260509220035 32 121 1.6 0.0 0.00 0.00 0.00 48 1007.8
20260509215512 32 121 3.2 0.0 0.00 0.00 0.00 46 1007.9
20260509215055 32 107 1.6 0.0 0.00 0.00 0.00 50 1007.8
20260509214556 32 159 0.0 0.0 0.00 0.00 0.00 48 1007.9
20260509214033 32 130 1.6 0.0 0.00 0.00 0.00 48 1007.9
20260509213607 32 130 3.2 0.0 0.00 0.00 0.00 47 1008.0
20260509213055 32 130 3.2 0.0 0.00 0.00 0.00 46 1008.1
20260509212527 32 68 1.6 0.0 0.00 0.00 0.00 48 1008.1
20260509212008 32 68 1.6 0.0 0.00 0.00 0.00 49 1008.2
20260509211557 32 68 1.6 0.0 0.00 0.00 0.00 47 1008.2
20260509211029 33 68 1.6 0.0 0.00 0.00 0.00 46 1008.3
20260509210509 33 68 3.2 0.0 0.00 0.00 0.00 47 1008.4
20260509210009 33 68 1.6 0.0 0.00 0.00 0.00 47 1008.5
20260509205549 32 5 1.6 0.0 0.00 0.00 0.00 47 1008.5
20260509205026 32 5 1.6 0.0 0.00 0.00 0.00 48 1008.7
20260509204525 32 5 1.6 0.0 0.00 0.00 0.00 50 1008.8
20260509204104 32 5 1.6 0.0 0.00 0.00 0.00 48 1008.8
20260509203536 31 5 1.6 0.0 0.00 0.00 0.00 54 1008.9
20260509203102 31 346 1.6 0.0 0.00 0.00 0.00 52 1009.0
20260509202510 31 344 1.6 0.0 0.00 0.00 0.00 52 1009.1
20260509202048 31 344 3.2 0.0 0.00 0.00 0.00 51 1009.2
20260509201535 31 346 3.2 0.0 0.00 0.00 0.00 53 1009.4
20260509201012 31 185 3.2 0.0 0.00 0.00 0.00 52 1009.5
20260509200548 31 272 1.6 0.0 0.00 0.00 0.00 53 1009.6
20260509200037 31 274 1.6 0.0 0.00 0.00 0.00 52 1009.6
20260509195515 31 275 1.6 0.0 0.00 0.00 0.00 52 1009.6
20260509195052 31 274 1.6 0.0 0.00 0.00 0.00 54 1009.6
20260509194540 31 272 1.6 0.0 0.00 0.00 0.00 55 1009.6
20260509194015 30 272 1.6 0.0 0.00 0.00 0.00 57 1009.5
20260509193549 30 272 1.6 0.0 0.00 0.00 0.00 54 1009.5
20260509193133 30 315 1.6 0.0 0.00 0.00 0.00 60 1009.6
20260509192527 30 315 1.6 0.0 0.00 0.00 0.00 61 1009.7
20260509192104 29 315 1.6 0.0 0.00 0.00 0.00 66 1009.7
20260509191612 29 309 3.2 0.0 0.00 0.00 0.00 67 1009.8
20260509191027 28 309 3.2 0.0 0.00 0.00 0.00 68 1010.0
20260509190501 28 126 3.2 0.0 0.00 0.00 0.00 71 1010.1
20260509190003 28 133 3.2 0.0 0.00 0.00 0.00 72 1010.3
20260509185547 28 86 1.6 0.0 0.00 0.00 0.00 72 1010.4
20260509185026 28 142 1.6 0.0 0.00 0.00 0.00 73 1010.4
20260509184531 27 142 1.6 0.0 0.00 0.00 0.00 73 1010.4
20260509184101 27 142 0.0 0.0 0.00 0.00 0.00 77 1010.5
20260509183536 27 142 0.0 0.0 0.00 0.00 0.00 77 1010.5
20260509183044 27 142 0.0 0.0 0.00 0.00 0.00 78 1010.6
20260509182513 27 142 0.0 0.0 0.00 0.00 0.00 79 1010.7
20260509182054 27 142 0.0 0.0 0.00 0.00 0.00 79 1010.7
20260509181602 26 142 0.0 0.0 0.00 0.00 0.00 78 1010.9
20260509181027 26 142 0.0 0.0 0.00 0.00 0.00 80 1011.0
20260509180605 26 142 0.0 0.0 0.00 0.00 0.00 80 1011.0
20260509180004 26 142 0.0 0.0 0.00 0.00 0.00 80 1011.0
20260509175540 26 142 0.0 0.0 0.00 0.00 0.00 80 1011.2
20260509175015 26 142 1.6 0.0 0.00 0.00 0.00 80 1011.1
20260509174516 26 142 1.6 0.0 0.00 0.00 0.00 81 1011.0
20260509174053 26 142 1.6 0.0 0.00 0.00 0.00 81 1011.0
20260509173525 26 142 1.6 0.0 0.00 0.00 0.00 84 1011.3
20260509173028 26 142 1.6 0.0 0.00 0.00 0.00 88 1011.2
20260509172503 25 142 0.0 0.0 0.00 0.00 0.00 85 1011.2
20260509172037 25 142 1.6 0.0 0.00 0.00 0.00 85 1011.4
20260509171540 25 142 1.6 0.0 0.00 0.00 0.00 84 1011.5
20260509171016 25 142 1.6 0.0 0.00 0.00 0.00 83 1011.6
20260509170552 26 142 0.0 0.0 0.00 0.00 0.00 84 1011.8
20260509170039 26 142 1.6 0.0 0.00 0.00 0.00 83 1011.7
20260509165512 26 142 0.0 0.0 0.00 0.00 0.00 82 1011.7
20260509165051 26 142 1.6 0.0 0.00 0.00 0.00 79 1011.5
20260509164601 26 142 3.2 0.0 0.00 0.00 0.00 79 1011.5
20260509164027 27 142 3.2 0.0 0.00 0.00 0.00 78 1011.4
20260509163604 27 142 3.2 0.0 0.00 0.00 0.00 77 1011.4
20260509163051 27 142 3.2 0.0 0.00 0.00 0.00 75 1011.2
20260509162524 28 105 3.2 0.0 0.00 0.00 0.00 74 1011.4
20260509162104 28 73 3.2 0.0 0.00 0.00 0.00 73 1011.4
20260509161502 28 71 3.2 0.0 0.00 0.00 0.00 73 1011.3
20260509161037 28 135 1.6 0.0 0.00 0.00 0.00 72 1011.1
20260509160510 28 201 0.0 0.0 0.00 0.00 0.00 72 1011.1
20260509160015 28 277 0.0 0.0 0.00 0.00 0.00 70 1011.1
20260509155550 28 277 0.0 0.0 0.00 0.00 0.00 69 1011.1
20260509155026 28 277 1.6 0.0 0.00 0.00 0.00 71 1011.1
20260509154529 28 277 3.2 0.0 0.00 0.00 0.00 71 1011.0
20260509154007 28 277 1.6 0.0 0.00 0.00 0.00 71 1010.9
20260509153542 28 290 1.6 0.0 0.00 0.00 0.00 72 1010.9
20260509153047 28 203 1.6 0.0 0.00 0.00 0.00 73 1010.8
20260509152520 28 203 3.2 0.0 0.00 0.00 0.00 72 1010.8
20260509152104 27 203 3.2 0.0 0.00 0.00 0.00 72 1010.8
20260509151609 27 203 1.6 0.0 0.00 0.00 0.00 73 1010.8
20260509151036 27 203 3.2 0.0 0.00 0.00 0.00 74 1010.7
20260509150506 27 197 3.2 0.0 0.00 0.00 0.00 75 1010.6
20260509150009 27 242 3.2 0.0 0.00 0.00 0.00 77 1010.5
20260509145548 27 173 3.2 0.0 0.00 0.00 0.00 77 1010.6
20260509145018 27 19 3.2 0.0 0.00 0.00 0.00 78 1010.5
20260509144530 26 240 3.2 0.0 0.00 0.00 0.00 79 1010.3
20260509144059 26 245 3.2 0.0 0.00 0.00 0.00 79 1010.2
20260509143529 26 146 3.2 0.0 0.00 0.00 0.00 80 1010.1
20260509143035 26 184 3.2 0.0 0.00 0.00 0.00 81 1010.0
20260509142511 26 128 4.8 0.0 0.00 0.00 0.00 83 1010.0
20260509142049 25 201 3.2 0.0 0.00 0.00 0.00 84 1009.9
20260509141536 25 166 3.2 0.0 0.00 0.00 0.00 86 1009.9
20260509141010 25 208 4.8 0.0 0.00 0.00 0.00 87 1009.8
20260509140547 24 150 4.8 0.0 0.00 0.00 0.00 87 1009.9
20260509140037 24 138 4.8 0.0 0.00 0.00 0.00 88 1010.0
20260509135514 23 228 3.2 0.0 0.00 0.00 0.00 89 1010.0
20260509135045 23 208 3.2 0.0 0.00 0.00 0.00 90 1010.0
20260509134551 23 207 3.2 0.0 0.00 0.00 0.00 91 1010.2
20260509134027 23 192 1.6 0.0 0.00 0.00 0.00 91 1010.1
20260509133606 23 194 1.6 0.0 0.00 0.00 0.00 91 1010.1
20260509133006 22 194 3.2 0.0 0.00 0.00 0.00 91 1010.0
20260509132541 22 211 4.8 0.0 0.00 0.00 0.00 91 1009.9
20260509132014 22 146 3.2 0.0 0.00 0.00 0.00 91 1009.7
20260509131519 22 204 1.6 0.0 0.00 0.00 0.00 90 1009.9
20260509131057 22 217 1.6 0.0 0.00 0.00 0.00 90 1009.9
20260509130530 22 217 1.6 0.0 0.00 0.00 0.00 90 1010.0
20260509130049 21 167 0.0 0.0 0.00 0.00 0.00 90 1009.9
20260509125504 21 167 0.0 0.0 0.00 0.00 0.00 90 1009.9
20260509125040 21 167 0.0 0.0 0.00 0.00 0.00 90 1010.0
20260509124545 21 167 0.0 0.0 0.00 0.00 0.00 91 1010.1
20260509124015 21 167 1.6 0.0 0.00 0.00 0.00 90 1010.2
20260509123557 21 167 1.6 0.0 0.00 0.00 0.00 90 1010.2
20260509123059 21 167 1.6 0.0 0.00 0.00 0.00 90 1010.2
20260509122535 21 159 1.6 0.0 0.00 0.00 0.00 90 1010.3
20260509122008 21 158 1.6 0.0 0.00 0.00 0.00 91 1010.5
20260509121513 21 158 1.6 0.0 0.00 0.00 0.00 90 1010.5
20260509121052 21 159 0.0 0.0 0.00 0.00 0.00 90 1010.5
20260509120522 21 159 1.6 0.0 0.00 0.00 0.00 91 1010.5
20260509120032 21 128 1.6 0.0 0.00 0.00 0.00 91 1010.6
20260509115602 21 128 1.6 0.0 0.00 0.00 0.00 91 1010.8
20260509115035 21 128 1.6 0.0 0.00 0.00 0.00 91 1010.7
20260509114540 21 128 0.0 0.0 0.00 0.00 0.00 91 1010.9
20260509114008 21 128 0.0 0.0 0.00 0.00 0.00 91 1011.0
20260509113547 21 128 0.0 0.0 0.00 0.00 0.00 91 1011.2
20260509113035 21 128 0.0 0.0 0.00 0.00 0.00 91 1011.5
20260509112511 21 128 0.0 0.0 0.00 0.00 0.00 91 1011.3
20260509112047 21 129 0.0 0.0 0.00 0.00 0.00 91 1011.5
20260509111551 21 128 0.0 0.0 0.00 0.00 0.00 91 1011.6
20260509111023 21 128 0.0 0.0 0.00 0.00 0.00 91 1011.6